This is the latest recevied weather packets stored in our database for station/object KJ6LNH-1. If no packets are shown the sender has not sent any weather packets the latest 1 day(s).
| Time | Temp. | Humidity | Pressure | Rain* | Wind** | Luminosity | Snow |
|---|---|---|---|---|---|---|---|
| 1777986023 | 10.56° C | 96% | 1012.9 hPa | 0 mm | 1.34 m/s, 229° | - | - |
| 1777985709 | 10.56° C | 96% | 1012.8 hPa | 0 mm | 1.34 m/s, 236° | - | - |
| 1777985408 | 10.56° C | 96% | 1012.8 hPa | 0 mm | 1.34 m/s, 213° | - | - |
| 1777985108 | 10.56° C | 96% | 1012.8 hPa | 0 mm | 1.79 m/s, 198° | - | - |
| 1777984508 | 10.56° C | 96% | 1012.7 hPa | 0 mm | 1.34 m/s, 204° | - | - |
| 1777983909 | 10.56° C | 95% | 1012.7 hPa | 0 mm | 1.34 m/s, 200° | - | - |
| 1777983308 | 10.56° C | 95% | 1012.6 hPa | 0 mm | 1.34 m/s, 189° | - | - |
| 1777983025 | 10.56° C | 95% | 1012.8 hPa | 0 mm | 1.34 m/s, 250° | - | - |
| 1777982708 | 10.56° C | 95% | 1012.9 hPa | 0 mm | 1.34 m/s, 194° | - | - |
| 1777982108 | 10.56° C | 96% | 1012.9 hPa | 0 mm | 1.34 m/s, 223° | - | - |
| 1777981208 | 10.56° C | 96% | 1012.9 hPa | 0 mm | 1.34 m/s, 193° | - | - |
| 1777980909 | 10° C | 97% | 1012.8 hPa | 0 mm | 1.34 m/s, 226° | - | - |
| 1777980348 | 10° C | 97% | 1012.7 hPa | 0 mm | 1.34 m/s, 207° | - | - |
| 1777980308 | 10° C | 97% | 1012.7 hPa | 0 mm | 1.34 m/s, 207° | - | - |
| 1777980010 | 10° C | 97% | 1012.7 hPa | 0 mm | 1.79 m/s, 217° | - | - |
| 1777979708 | 10° C | 97% | 1012.7 hPa | 0 mm | 1.79 m/s, 214° | - | - |
| 1777979408 | 10° C | 97% | 1012.6 hPa | 0 mm | 1.79 m/s, 229° | - | - |
| 1777979108 | 10° C | 98% | 1012.7 hPa | 0 mm | 1.34 m/s, 252° | - | - |
| 1777978508 | 10° C | 98% | 1013.1 hPa | 0 mm | 1.34 m/s, 230° | - | - |
| 1777977907 | 10° C | 98% | 1013.2 hPa | 0 mm | 1.79 m/s, 202° | - | - |
| 1777977613 | 10° C | 98% | 1013.1 hPa | 0 mm | 1.34 m/s, 205° | - | - |
| 1777977308 | 10° C | 98% | 1013.1 hPa | 0 mm | 1.34 m/s, 221° | - | - |
| 1777977009 | 10° C | 98% | 1013 hPa | 0 mm | 1.34 m/s, 217° | - | - |
| 1777976708 | 10° C | 98% | 1013 hPa | 0 mm | 1.34 m/s, 208° | - | - |
| 1777976411 | 10° C | 98% | 1013 hPa | 0 mm | 1.34 m/s, 221° | - | - |
* Rain latest hour (hover to see other rain measurements)
** Current wind speed in m/s (hover to see current wind gust speed)